SHIJIAN-20 (SJ-20)

Last updated on Thu Oct 30 2025 00:02:51 GMT+0000 (Coordinated Universal Time)

1 44910U 19097A 25302.73403887 -.00000104 00000+0 00000+0 0 9990 2 44910 4.3250 77.8923 0003818 188.4435 114.1969 1.00271086 21383
UTC large
Height (km)
Speed (km/s)
/
Latitude / Longitude
Inclination (degrees)
Orbital Period (minutes)
Azimuth
Elevation
Range (km)
Doppler Factor

Next 0 passes for location: London (51.5072 / 0.1276)

Sorry there are no passes over London.